Вернуться в каталог

STARLINK-36967

АктивенСвязьVLEO
NORAD 68013·PAYLOAD·🇺🇸 United States

Запущен Feb 27, 2026 с Vandenberg Space Force Base

Loading…

Ближайшие Пролёты (ближайшие 24 часа)

TLE

СвежийSource: CelesTrak SupGP

Эпоха: Sep 14, 2026, 22:41 UTC

1 68013C 26039AD  26257.94562500  .00054490  00000+0  19733-2 0  2574
2 68013  43.0044  60.0350 0001783 275.7011 266.0762 15.27555975    12

Отслеживайте STARLINK-36967 в реальном времени с AllMySat

Download on the App Store